Showing default

POSAT 2, 63488

Orbit data source: Space-Track

POSAT 2, 63488 is a Portuguese payload satellite in SSO that was launched on Tue, 14 Jan 2025 UTC via an FALCON 9 launch vehicle from the Air Force Western Test Range (AFWTR). Payload-class satellites include a variety of spacecraft equipped with specific instruments for various scientific and technological missions. These include communications satellites like Starlink; space stations such as the ISS; scientific satellites like the Hubble; Earth observation satellites from companies like Planet Labs, Umbra, and HawkEye 360; GPS; miniature CubeSats for education and research; and military/defense satellites.

Loading next visibility...
Identifier
63488, 2025-009DR
Orbit
SSO
Country
Flag of PTPT / POR
Related business
Manufacturer
LUSO
Mission
Operational Commercial Communications
Bus & Motor
CUBESAT 3U, Unknown motor
Mass
5 kg wet, 5 kg dry
Launch date (UTC)
2025-01-14 (9 months ago)
Launch vehicle
FALCON 9
Launch site
Air Force Western Test Range (AFWTR)
Object type
Payload
Rocket body
Debris
Shape & HBR
Box + 2 Pan, 14.5 m
Radar Cross Section
0.048 m², Small (<0.1 m²)

Expand to show TLE details & history
Last TLE update: 18 hours ago

TLE from 18 hours ago
0 POSAT 2
1 63488U 25009DR  25297.28814587  .00005101  00000-0  35254-3 0  9992
2 63488  97.5113  12.5525 0006239 225.1649 134.9072 15.06151231 31056
Epoch: 2025-10-24T06:54Z
TLE epoch observation values (Epoch: 2025-10-24T06:54:55.803Z)
Latitude
Longitude
-124.11521°
Altitude
554.095 km
Speed
7.583 km/s
True Right ascension
00h 50m 12s
True Declination
0° 00' 00"
Sunlit
Object was in full shadow at epoch
Visualization orbit readout
Latitude
Unknown
Longitude
Unknown
Altitude
Unknown
Speed
Unknown
Apparent Right ascension
Unknown
Apparent Declination
Unknown
Sunlit
N/A
Visualization observer readout
Local Sidereal Time
20:31:05
Azimuth
Unknown
Elevation
Unknown
Doppler factor
Unknown
Orbital elements
Apogee altitude
549.282 km
Perigee altitude
540.644 km
Semi-major axis
6,923.1 km
Eccentricity
0.00062
Inclination
97.5113°
RAAN
12.5525°
Arg. of periapsis
225.1649°
True anomaly
134.95781°
Mean anomaly
134.9072°
Eccentric anomaly
134.93251°
Mean motion
3.76784 °/min
Orbital period
95.55 mins
BSTAR
0.00035254
Loading maneuver chart data...
Computing Atmospheric mass density...
Loading historical data...
Loading historical data...
Loading historical data...
Loading historical data...
Loading historical data...
Loading historical data...
Loading historical data...

Documentation

Showing up to 5 results
|